When you browse on this site, cookies collect data to enhance your experience and personalize the content and advertising you see.
Visit our Privacy Policy to learn more. By continuing to use the site, you agree to this use of cookies and data.
  • în România
  • Lista ţărilor
  • Pe 7 zile
  • Temperatura apei
  • Meteo pe hartă
  • Widget-uri
  • user-avatar
    Intrare

    Meteo pe oră la Ipswich

    Astăzi, 2 Iunie, Marţi

    Timp Temperatura Precipitaţii Vânt Presiune Umiditate
    00:00 +9°C° 0 mm 3 m/s 765 mmHg 93%
    01:00 +9°C° 0 mm 3 m/s 765 mmHg 94%
    02:00 +9°C° 0 mm 3 m/s 765 mmHg 94%
    03:00 +9°C° 0 mm 3 m/s 764 mmHg 95%
    04:00 +10°C° 0 mm 3 m/s 764 mmHg 93%
    05:00 +11°C° 0 mm 3 m/s 764 mmHg 91%
    06:00 +12°C° 0 mm 3 m/s 764 mmHg 89%
    07:00 +14°C° 0 mm 3 m/s 764 mmHg 84%
    08:00 +17°C° 0 mm 3 m/s 764 mmHg 78%
    09:00 +18°C° 0 mm 3 m/s 764 mmHg 73%
    10:00 +19°C° 0 mm 3 m/s 764 mmHg 68%
    11:00 +20°C° 0 mm 2 m/s 763 mmHg 63%
    12:00 +21°C° 0 mm 2 m/s 763 mmHg 59%
    13:00 +21°C° 0 mm 2 m/s 763 mmHg 59%
    14:00 +21°C° 0 mm 2 m/s 762 mmHg 60%
    15:00 +21°C° 0 mm 2 m/s 761 mmHg 61%
    16:00 +21°C° 0 mm 2 m/s 761 mmHg 65%
    17:00 +20°C° 0 mm 2 m/s 761 mmHg 69%
    18:00 +19°C° 0 mm 2 m/s 760 mmHg 73%
    19:00 +17°C° 0 mm 2 m/s 760 mmHg 78%
    20:00 +15°C° 0 mm 1 m/s 760 mmHg 83%
    21:00 +12°C° 0 mm 1 m/s 759 mmHg 88%
    22:00 +12°C° 0 mm 1 m/s 759 mmHg 88%
    23:00 +12°C° 0 mm 1 m/s 758 mmHg 88%

    Mâine, 3 Iunie, Miercuri

    Timp Temperatura Precipitaţii Vânt Presiune Umiditate
    00:00 +11°C° 0 mm 1 m/s 758 mmHg 88%
    01:00 +11°C° 0 mm 1 m/s 757 mmHg 86%
    02:00 +11°C° 0 mm 1 m/s 757 mmHg 85%
    03:00 +12°C° 0 mm 1 m/s 756 mmHg 83%
    04:00 +12°C° 0 mm 1 m/s 756 mmHg 81%
    05:00 +13°C° 0 mm 2 m/s 756 mmHg 79%
    06:00 +14°C° 0 mm 2 m/s 755 mmHg 77%
    07:00 +15°C° 0 mm 2 m/s 755 mmHg 74%
    08:00 +14°C° 0 mm 3 m/s 755 mmHg 71%
    09:00 +15°C° 0 mm 4 m/s 755 mmHg 68%
    10:00 +15°C° 0 mm 4 m/s 755 mmHg 70%
    11:00 +15°C° 0 mm 4 m/s 754 mmHg 72%
    12:00 +14°C° 0 mm 4 m/s 754 mmHg 74%
    13:00 +15°C° 0 mm 4 m/s 754 mmHg 72%
    14:00 +16°C° 0 mm 5 m/s 754 mmHg 71%
    15:00 +16°C° 0 mm 5 m/s 753 mmHg 69%
    16:00 +16°C° 0 mm 6 m/s 753 mmHg 70%
    17:00 +15°C° 0 mm 6 m/s 753 mmHg 72%
    18:00 +14°C° 0 mm 6 m/s 753 mmHg 73%
    19:00 +13°C° 0 mm 6 m/s 753 mmHg 75%
    20:00 +11°C° 0 mm 6 m/s 753 mmHg 76%
    21:00 +10°C° 0 mm 6 m/s 753 mmHg 78%
    22:00 +10°C° 0 mm 6 m/s 753 mmHg 82%
    23:00 +9°C° 0 mm 6 m/s 753 mmHg 86%

    Poimâine, 4 Iunie, Joi

    Timp Temperatura Precipitaţii Vânt Presiune Umiditate
    00:00 +9°C° 0 mm 6 m/s 753 mmHg 90%
    01:00 +9°C° 0 mm 6 m/s 752 mmHg 89%
    02:00 +10°C° 0 mm 6 m/s 752 mmHg 88%
    03:00 +10°C° 0 mm 5 m/s 752 mmHg 87%
    04:00 +10°C° 0.1 mm 6 m/s 752 mmHg 85%
    05:00 +10°C° 0.1 mm 6 m/s 751 mmHg 83%
    06:00 +10°C° 0.1 mm 7 m/s 751 mmHg 82%
    07:00 +10°C° 0.1 mm 7 m/s 751 mmHg 80%
    08:00 +11°C° 0.1 mm 7 m/s 751 mmHg 79%
    09:00 +11°C° 0.1 mm 7 m/s 751 mmHg 78%
    10:00 +11°C° 0.1 mm 7 m/s 751 mmHg 72%
    11:00 +12°C° 0.1 mm 7 m/s 751 mmHg 66%
    12:00 +12°C° 0.1 mm 7 m/s 750 mmHg 60%
    13:00 +14°C° 0.1 mm 6 m/s 750 mmHg 60%
    14:00 +14°C° 0.1 mm 6 m/s 750 mmHg 60%
    15:00 +14°C° 0.1 mm 5 m/s 749 mmHg 60%
    16:00 +13°C° 0.1 mm 5 m/s 749 mmHg 63%
    17:00 +13°C° 0.1 mm 4 m/s 749 mmHg 66%
    18:00 +12°C° 0.1 mm 3 m/s 749 mmHg 69%
    19:00 +11°C° 0 mm 3 m/s 749 mmHg 73%
    20:00 +9°C° 0 mm 2 m/s 749 mmHg 78%
    21:00 +9°C° 0 mm 1 m/s 749 mmHg 83%
    22:00 +8°C° 0.4 mm 2 m/s 749 mmHg 86%
    23:00 +8°C° 0.4 mm 2 m/s 748 mmHg 90%

    5 Iunie, Vineri

    Timp Temperatura Precipitaţii Vânt Presiune Umiditate
    00:00 +8°C° 0.4 mm 3 m/s 748 mmHg 94%
    01:00 +7°C° 0.2 mm 3 m/s 748 mmHg 95%
    02:00 +7°C° 0.2 mm 3 m/s 748 mmHg 95%
    03:00 +5°C° 0.2 mm 3 m/s 748 mmHg 96%
    04:00 +6°C° 0 mm 4 m/s 748 mmHg 93%
    05:00 +6°C° 0 mm 5 m/s 748 mmHg 91%
    06:00 +5°C° 0 mm 6 m/s 748 mmHg 88%
    07:00 +8°C° 0 mm 6 m/s 748 mmHg 78%
    08:00 +9°C° 0 mm 7 m/s 748 mmHg 69%
    09:00 +11°C° 0 mm 7 m/s 748 mmHg 59%
    10:00 +11°C° 0 mm 6 m/s 748 mmHg 58%
    11:00 +13°C° 0 mm 6 m/s 748 mmHg 58%
    12:00 +14°C° 0 mm 6 m/s 748 mmHg 58%
    13:00 +13°C° 0.5 mm 6 m/s 748 mmHg 67%
    14:00 +11°C° 0.5 mm 6 m/s 748 mmHg 76%
    15:00 +11°C° 0.5 mm 6 m/s 748 mmHg 84%
    16:00 +12°C° 0.7 mm 5 m/s 747 mmHg 85%
    17:00 +10°C° 0.7 mm 5 m/s 747 mmHg 85%
    18:00 +11°C° 0.7 mm 4 m/s 747 mmHg 85%
    19:00 +10°C° 0.1 mm 4 m/s 747 mmHg 86%
    20:00 +8°C° 0.1 mm 5 m/s 747 mmHg 87%
    21:00 +7°C° 0.1 mm 5 m/s 748 mmHg 88%
    22:00 +6°C° 0 mm 5 m/s 748 mmHg 88%
    23:00 +5°C° 0 mm 6 m/s 747 mmHg 88%

    6 Iunie, Sâmbătă

    Timp Temperatura Precipitaţii Vânt Presiune Umiditate
    00:00 +4°C° 0 mm 7 m/s 747 mmHg 88%
    01:00 +4°C° 0 mm 7 m/s 748 mmHg 88%
    02:00 +4°C° 0 mm 7 m/s 748 mmHg 88%
    03:00 +4°C° 0 mm 7 m/s 748 mmHg 89%
    04:00 +4°C° 0 mm 7 m/s 748 mmHg 86%
    05:00 +5°C° 0 mm 8 m/s 748 mmHg 83%
    06:00 +5°C° 0 mm 8 m/s 749 mmHg 80%
    07:00 +7°C° 0 mm 8 m/s 749 mmHg 72%
    08:00 +9°C° 0 mm 8 m/s 749 mmHg 65%
    09:00 +11°C° 0 mm 9 m/s 750 mmHg 57%
    10:00 +11°C° 0.1 mm 9 m/s 750 mmHg 57%
    11:00 +11°C° 0.1 mm 9 m/s 750 mmHg 56%
    12:00 +11°C° 0.1 mm 9 m/s 750 mmHg 56%
    13:00 +11°C° 0.1 mm 9 m/s 750 mmHg 57%
    14:00 +11°C° 0.1 mm 9 m/s 751 mmHg 59%
    15:00 +11°C° 0.1 mm 9 m/s 751 mmHg 60%
    16:00 +11°C° 0.1 mm 9 m/s 751 mmHg 61%
    17:00 +10°C° 0.1 mm 8 m/s 751 mmHg 63%
    18:00 +10°C° 0.1 mm 8 m/s 751 mmHg 64%
    19:00 +9°C° 0 mm 7 m/s 752 mmHg 67%
    20:00 +8°C° 0 mm 7 m/s 752 mmHg 70%
    21:00 +6°C° 0 mm 7 m/s 752 mmHg 73%
    22:00 +5°C° 0 mm 7 m/s 752 mmHg 74%
    23:00 +5°C° 0 mm 7 m/s 752 mmHg 76%

    7 Iunie, Duminică

    Timp Temperatura Precipitaţii Vânt Presiune Umiditate
    00:00 +4°C° 0 mm 7 m/s 752 mmHg 77%
    01:00 +4°C° 0 mm 7 m/s 752 mmHg 78%
    02:00 +4°C° 0 mm 7 m/s 753 mmHg 79%
    03:00 +3°C° 0 mm 7 m/s 753 mmHg 80%
    04:00 +4°C° 0 mm 7 m/s 753 mmHg 78%
    05:00 +5°C° 0 mm 8 m/s 753 mmHg 75%
    06:00 +5°C° 0 mm 8 m/s 753 mmHg 73%
    07:00 +7°C° 0 mm 8 m/s 754 mmHg 70%
    08:00 +9°C° 0 mm 8 m/s 754 mmHg 66%
    09:00 +10°C° 0 mm 8 m/s 754 mmHg 63%
    10:00 +11°C° 0.1 mm 8 m/s 755 mmHg 62%
    11:00 +11°C° 0.1 mm 8 m/s 755 mmHg 62%
    12:00 +11°C° 0.1 mm 7 m/s 755 mmHg 61%
    13:00 +11°C° 0.1 mm 7 m/s 755 mmHg 61%
    14:00 +11°C° 0.1 mm 7 m/s 755 mmHg 62%
    15:00 +12°C° 0.1 mm 7 m/s 756 mmHg 62%
    16:00 +13°C° 0.1 mm 6 m/s 756 mmHg 63%
    17:00 +13°C° 0.1 mm 5 m/s 756 mmHg 64%
    18:00 +13°C° 0.1 mm 4 m/s 756 mmHg 66%
    19:00 +12°C° 0 mm 5 m/s 756 mmHg 72%
    20:00 +9°C° 0 mm 5 m/s 756 mmHg 79%
    21:00 +7°C° 0 mm 5 m/s 757 mmHg 86%
    22:00 +7°C° 0 mm 5 m/s 757 mmHg 86%
    23:00 +7°C° 0 mm 6 m/s 757 mmHg 85%
    Arată mai mult